Probability
0 0 0 0 0 0 0 0 0 0 0 0 0 0 0 0 0 0 0 0 0 0 0 0 0 0 0 0 0 0 0 0 0 0 0 0 0 0
0 0 0 0 0 0 0 0 0 0 0 0 0 0 0 0 0 0 0 0 0 0 0 0 0 0 0 0 0 0 0 0 0 0 0 0 0 0
0 0 0 0 0 0 0 0 0 0 0 0 0 0 0 0 0 0 0 0 0 0 0 0 0 0 0 0 0 0 0 0 0 0 0 0 0 0
0 0 0 0 0 0 0 0 0 0 0 0 0 0 0 0 0 0 0 0 0 0 0 0 0 0 0 0 0 0 0 0 0 0 0 0 0 0
0 0 0 0 0 0 0 0 0 0 0 0 0 0 0 0 0 0 0 0 0 0 0 0 0 0 0 0 0 0 0 0 0 0 0 0 0 0
0 0 0 0 0 0 0 0 0 0 0 0 0 0 0 0 0 0 0 0 0 0 0 0 0 0 0 0 0 0 0 0 0 0 0 0 0 0
0 0 0 0 0 0 0 0 0 0 0 0 0 0 0 0 0 0 0 0 0 0 0 0 0 0 0 0 0 0 0 0 0 0 0 0 0 0
0 0 0 0 0 0 0 0 0 0 0 0 0 0 0 0 0 0 0 0 0 0 0 0 0 0 0 0 0 0 0 0 0 0 0 0 0 0
0 0 0 0 0 0 0 0 0 0 0 0 0 0 0 0 0 0 0 0 0 0 0 0 0 0 0 0 0 0 0 0 0 0 0 0 0 0
0 0 0 0 0 0 0 0 0 0 0 0 0 0 0 0 0 0 0 0 0 0 0 0 0 0 0 0 0 0 0 0 0 0 0 0 0 0
0 0 0 0 0 0 0 0 0 0 0 0 0 0 0 0 0 0 0 0 0 0 0 0 0 0 0 0 0 0 0 0 0 0 0 0 0 0
0 0 0 0 0 0 0 0 0 0 0 0 0 0 0 0 0 0 0 0 0 0 0 0 0 0 0 0 0 0 0 0 0 0 0 0 0 0
0 0 0 0 0 0 0 0 0 0 0 0 0 0 0 0 0 0 0 0 0 0 0 0 0 0 0 0 0 0 0 0 0 0 0 0 0 0
0 0 0 0 0 0 0 0 0 0 0 0 0 0 0 0 0 0 0 0 0 0 0 0 0 0 0 0 0 0 0 0 0 0 0 0 0 0
0 0 0 0 0 0 0 0 0 0 0 0 0 0 0 0 0 0 0 0 0 0 0 0 0 0 0 0 0 0 0 0 0 0 0 0 0 0
0 0 0 0 0 0 0 0 0 0 0 0 0 0 0 0 0 0 0 0 0 0 0 0 0 0 0 0 0 0 0 0 0 0 0 0 0 0
0 0 0 0 0 0 0 0 0 0 0 0 0 0 0 0 0 0 0 0 0 0 0 0 0 0 0 0 0 0 0 0 0 0 0 0 0 0
0 0 0 0 0 0 0 0 0 0 0 0 0 0 0 0 0 0 0 0 0 0 0 0 0 0 0 0 0 0 0 0 0 0 0 0 0 0
0 0 0 0 0 0 0 0 0 0 0 0 0 0 0 0 0 0 0 0 0 0 0 0 0 0 0 0 0 0 0 0 0 0 0 0 0 0
0 0 0 0 0 0 0 0 0 0 0 0 0 0 0 0 0 0 0 0 0 0 0 0 0 0 0 0 0 0 0 0 0 0 0 0 0 0
0 0 0 0 0 0 0 0 0 0 0 0 0 0 0 0 0 0 0 0 0 0 0 0 0 0 0 0 0 0 0 0 0 0 0 0 0 0
0 0 0 0 0 0 0 0 0 0 0 0 0 0 0 0 0 0 0 0 0 0 0 0 0 0 0 0 0 0 0 0 0 0 0 0 0 0
0 0 0 0 0 0 0 0 0 0 0 0 0 0 0 0 0 0 0 0 0 0 0 0 0 0 0 0 0 0 0 0 0 0 0 0 0 0
Height
5686 5687 5688 5688 5688 5688 5688 5688 5688 5689 5689 5689 5688 5687 5686 5685 5685 5684 5683 5682 5680 5680 5679 5679 5678 5677 5676 5675 5674 5673 5671 5670 5669 5668 5667 5665 5664 5663
5675 5676 5676 5676 5676 5676 5676 5676 5675 5675 5676 5677 5675 5674 5673 5672 5672 5671 5670 5669 5668 5667 5666 5666 5665 5664 5663 5662 5661 5660 5658 5657 5656 5655 5653 5652 5651 5649
5663 5663 5664 5664 5664 5664 5664 5663 5663 5662 5663 5663 5662 5661 5660 5659 5658 5657 5657 5656 5655 5654 5653 5652 5652 5651 5650 5649 5648 5646 5645 5644 5642 5641 5639 5638 5637 5635
5651 5651 5651 5652 5651 5651 5651 5650 5650 5649 5648 5649 5648 5647 5646 5646 5645 5644 5643 5643 5642 5641 5640 5639 5638 5638 5637 5636 5634 5633 5632 5630 5629 5627 5626 5625 5623 5621
5639 5639 5639 5639 5639 5639 5638 5637 5636 5635 5635 5635 5635 5633 5633 5632 5631 5631 5630 5629 5628 5627 5626 5626 5625 5624 5623 5622 5620 5619 5618 5617 5615 5613 5611 5610 5608 5607
5626 5627 5627 5627 5627 5626 5625 5624 5623 5622 5621 5621 5620 5620 5619 5618 5617 5617 5616 5615 5614 5613 5613 5612 5611 5610 5609 5608 5607 5605 5604 5602 5601 5599 5597 5596 5594 5592
5614 5615 5615 5615 5614 5614 5613 5612 5611 5610 5608 5607 5607 5606 5605 5604 5604 5603 5602 5602 5601 5600 5599 5598 5597 5596 5595 5594 5592 5591 5590 5588 5587 5585 5583 5581 5580 5578
5603 5603 5603 5603 5602 5601 5600 5599 5598 5597 5595 5594 5593 5593 5592 5591 5590 5589 5589 5588 5588 5588 5586 5585 5583 5583 5581 5580 5579 5578 5576 5574 5573 5571 5569 5567 5565 5563
5591 5591 5590 5590 5589 5589 5588 5587 5585 5583 5582 5581 5580 5579 5578 5578 5577 5576 5575 5574 5573 5573 5572 5572 5570 5569 5568 5566 5565 5564 5562 5560 5558 5556 5555 5553 5551 5549
5579 5578 5578 5578 5577 5576 5575 5574 5573 5571 5570 5569 5567 5566 5564 5563 5563 5562 5561 5560 5560 5559 5558 5559 5557 5556 5554 5553 5551 5550 5548 5546 5544 5542 5541 5539 5537 5535
5567 5566 5566 5565 5565 5564 5563 5562 5561 5559 5557 5556 5554 5552 5551 5550 5549 5548 5547 5547 5547 5546 5545 5545 5544 5543 5542 5540 5538 5536 5534 5532 5530 5528 5526 5524 5523 5521
5556 5555 5554 5553 5552 5551 5550 5549 5548 5547 5545 5543 5541 5539 5537 5536 5535 5535 5534 5534 5533 5533 5532 5532 5531 5530 5530 5528 5525 5523 5521 5518 5516 5514 5512 5510 5508 5507
5544 5544 5543 5542 5541 5540 5539 5538 5536 5535 5533 5532 5529 5527 5525 5523 5522 5522 5521 5521 5520 5520 5519 5519 5518 5517 5516 5515 5513 5510 5507 5505 5503 5501 5499 5497 5495 5494
5533 5533 5532 5531 5530 5529 5528 5527 5525 5524 5523 5521 5519 5516 5514 5512 5511 5510 5509 5508 5508 5507 5506 5506 5505 5504 5503 5502 5500 5498 5495 5492 5490 5488 5486 5485 5483 5482
5522 5522 5522 5521 5520 5519 5518 5517 5516 5514 5512 5510 5508 5506 5504 5502 5500 5499 5498 5497 5496 5495 5494 5493 5492 5491 5490 5489 5487 5485 5483 5480 5478 5476 5475 5474 5473 5472
5512 5512 5511 5511 5510 5509 5508 5507 5505 5504 5503 5501 5499 5496 5494 5492 5490 5488 5487 5486 5485 5484 5483 5481 5480 5479 5477 5476 5474 5472 5470 5469 5467 5466 5465 5463 5462 5461
5502 5502 5501 5501 5500 5499 5498 5497 5495 5494 5493 5491 5489 5487 5484 5482 5480 5478 5477 5475 5475 5474 5472 5470 5468 5466 5465 5463 5462 5460 5458 5457 5456 5455 5454 5453 5452 5450
5492 5492 5491 5491 5490 5489 5488 5487 5486 5484 5483 5481 5479 5477 5475 5472 5470 5468 5467 5465 5464 5463 5461 5459 5457 5455 5453 5451 5450 5448 5447 5446 5445 5444 5442 5442 5442 5440
5481 5481 5481 5481 5480 5479 5478 5477 5476 5474 5473 5471 5469 5467 5465 5463 5460 5458 5457 5455 5454 5452 5450 5448 5446 5444 5442 5441 5439 5437 5436 5435 5434 5433 5432 5431 5431 5430
5471 5471 5471 5471 5470 5470 5469 5467 5466 5464 5463 5461 5459 5457 5455 5453 5450 5449 5447 5445 5443 5442 5440 5438 5435 5433 5431 5430 5429 5427 5425 5424 5423 5422 5421 5420 5420 5419
5462 5462 5462 5461 5461 5460 5459 5458 5456 5455 5453 5451 5449 5446 5444 5442 5440 5439 5437 5435 5433 5431 5430 5428 5425 5423 5421 5419 5418 5417 5415 5412 5412 5411 5411 5410 5409 5408
5453 5453 5452 5452 5451 5451 5450 5448 5447 5445 5443 5441 5439 5436 5434 5432 5430 5428 5426 5425 5423 5421 5420 5417 5415 5413 5411 5409 5407 5406 5405 5403 5401 5400 5400 5399 5398 5398
5444 5444 5444 5443 5442 5441 5440 5439 5437 5435 5433 5431 5429 5427 5424 5422 5420 5418 5417 5415 5413 5412 5410 5408 5405 5403 5401 5399 5398 5396 5395 5394 5392 5392 5391 5389 5388 5387
Wind_Speed
43 43 44 44 45 46 46 47 47 47 46 45 46 47 48 47 47 47 45 45 46 46 46 46 46 45 46 46 46 47 47 48 48 47 47 47 48 48
44 44 44 45 45 46 47 47 48 49 49 47 47 48 48 48 48 48 46 45 46 47 47 46 46 46 46 47 47 48 48 49 49 49 49 49 49 49
44 45 46 46 46 46 47 48 49 50 50 50 50 49 49 48 48 48 47 47 46 47 47 47 48 47 48 48 48 48 47 47 49 50 50 49 49 50
44 45 45 46 47 46 47 48 48 49 49 49 50 50 49 48 47 47 48 48 48 48 48 48 48 48 48 48 48 48 47 48 48 49 50 50 50 50
44 45 44 44 44 45 46 47 47 48 49 50 50 50 50 49 49 48 47 48 48 48 48 48 48 48 48 48 48 48 48 48 49 49 49 49 50 50
44 44 44 44 45 45 45 45 47 47 48 49 49 50 49 49 49 49 48 48 47 47 48 49 49 48 48 48 48 48 49 48 49 48 48 48 49 50
42 42 43 43 43 44 44 44 45 45 46 47 48 48 48 49 48 48 47 48 47 47 48 49 48 47 47 47 47 47 47 48 48 48 48 48 48 48
42 43 43 42 43 43 43 44 44 44 44 45 46 46 47 47 47 46 46 46 46 46 46 47 47 47 47 47 47 47 47 47 48 48 48 48 48 48
41 42 43 43 43 43 43 44 44 44 44 44 44 45 46 47 47 46 46 46 45 44 45 45 46 46 46 46 47 47 47 47 47 47 47 47 47 47
42 42 43 43 43 44 44 44 44 43 44 45 45 45 45 45 45 45 45 45 45 44 44 44 44 44 44 44 45 45 45 46 46 47 47 47 47 47
42 42 42 43 43 43 43 43 44 44 45 45 46 46 46 46 45 44 43 44 44 44 44 43 43 43 43 43 43 44 44 45 46 46 46 46 47 46
40 41 41 41 41 41 41 42 42 43 43 44 44 44 44 44 44 43 43 43 44 43 42 42 43 42 42 43 43 44 45 45 45 45 45 45 44 43
38 38 39 39 39 39 39 39 39 39 40 40 40 40 40 41 41 41 41 41 41 41 41 41 41 42 42 42 43 43 44 44 44 44 43 42 41 39
36 37 37 37 37 37 36 36 36 36 36 36 36 37 38 38 38 39 39 39 39 40 40 40 40 41 42 42 42 43 43 43 42 41 40 39 38 37
35 35 35 35 35 35 35 35 35 34 34 34 35 35 36 36 36 37 37 38 38 38 38 39 39 40 41 41 41 41 41 41 39 38 37 37 37 36
34 34 34 34 34 34 34 34 34 34 34 34 34 34 34 35 35 35 36 36 36 36 37 38 39 39 39 40 40 39 39 37 36 36 36 36 36 36
33 33 33 33 33 32 32 33 33 33 34 34 34 33 33 33 34 34 35 35 36 36 37 38 39 39 39 39 38 37 36 35 35 35 35 35 35 35
33 32 32 32 32 32 32 32 33 33 33 33 33 34 34 34 34 34 35 36 36 36 37 37 38 39 38 37 37 36 36 35 35 35 34 34 34 34
32 32 32 32 32 32 32 32 33 33 33 33 34 34 34 34 34 34 35 36 36 37 37 38 38 37 37 36 36 35 35 35 34 34 34 33 33 33
31 31 31 31 31 31 32 33 33 33 33 33 33 34 35 35 35 35 35 35 36 36 36 36 35 35 35 35 34 33 34 34 33 33 33 33 33 33
29 30 30 30 31 31 31 32 32 32 33 32 33 33 35 35 35 35 35 35 34 34 33 33 33 33 34 33 33 32 32 33 32 32 32 32 32 32
28 28 29 29 29 30 30 30 31 32 32 32 32 33 33 33 33 33 33 33 32 32 33 33 32 32 32 32 31 31 31 31 32 32 31 31 31 30
27 28 28 28 29 30 30 31 31 32 32 31 31 31 31 31 31 30 31 30 30 30 30 30 30 30 30 30 29 29 29 29 30 30 30 30 30 29
Wind_Direction
267 268 269 270 270 270 271 272 272 273 274 274 273 272 273 275 274 274 274 274 273 273 274 276 276 276 275 276 276 277 277 277 278 278 279 279 280 280
267 268 269 270 270 270 271 272 273 273 274 274 274 274 274 275 274 273 274 274 274 274 274 274 276 277 276 276 276 276 277 277 278 278 279 279 280 280
268 268 268 270 271 271 271 272 273 273 274 274 275 275 275 274 274 274 275 275 275 275 276 276 276 277 277 277 277 276 277 278 278 278 279 279 279 280
268 269 269 270 271 272 272 272 273 274 274 275 275 275 275 274 273 274 275 275 275 276 277 277 276 277 277 277 277 277 277 277 278 279 279 279 280 281
267 268 270 271 272 273 274 274 274 275 275 275 276 276 276 275 274 274 274 276 275 275 276 276 276 276 275 276 276 277 277 277 278 279 279 280 280 280
269 268 269 270 272 274 275 275 276 276 275 275 276 276 276 276 275 275 275 276 275 275 275 276 276 275 275 276 277 278 278 278 278 279 279 279 280 280
269 269 269 271 273 274 275 276 276 276 276 275 275 275 276 276 276 276 276 276 276 276 276 276 276 276 276 277 277 278 279 279 279 279 279 280 280 280
270 270 270 271 272 274 275 276 276 277 277 277 277 277 277 276 276 276 277 276 276 276 276 276 276 276 277 278 278 278 279 279 279 279 279 280 280 279
271 271 271 272 273 274 276 276 277 277 277 279 280 279 278 277 276 277 277 277 276 276 276 277 277 278 278 278 278 279 279 280 280 279 280 280 280 279
272 272 273 274 274 275 276 277 277 277 278 279 280 280 279 278 277 277 277 277 277 277 276 277 278 279 279 280 280 280 280 280 280 279 280 280 280 280
272 273 274 275 275 276 276 277 278 278 278 279 280 280 280 278 277 276 276 276 276 276 277 277 278 279 281 282 281 281 281 282 282 281 280 280 280 280
273 274 275 276 276 277 277 278 279 279 280 281 281 282 281 280 277 276 276 276 275 276 276 277 278 279 280 281 282 282 282 282 282 282 281 280 279 279
274 275 275 276 276 277 277 279 280 281 282 282 282 282 282 281 278 276 276 276 276 276 276 276 277 278 279 280 281 282 282 282 282 281 281 280 279 278
275 275 276 276 276 276 277 279 281 282 282 283 284 284 283 281 279 278 276 275 277 277 276 277 278 280 280 280 281 282 282 283 282 281 281 279 278 276
276 276 276 276 276 276 277 278 279 281 282 284 286 286 285 283 281 279 277 276 277 278 277 278 280 282 282 284 284 283 283 283 282 280 279 277 277 276
275 275 275 275 275 275 276 277 278 280 283 284 285 286 285 284 282 279 278 278 279 280 279 280 282 283 284 285 285 284 283 282 281 280 278 277 277 276
274 274 274 274 274 274 275 276 278 280 282 283 284 285 284 283 282 280 280 280 279 280 281 283 284 285 285 286 285 283 281 279 279 280 279 279 278 278
272 273 274 274 274 274 275 276 278 280 281 283 283 283 283 284 283 282 282 281 281 282 283 284 285 285 284 285 284 283 280 279 279 279 279 279 279 278
271 272 273 274 274 274 276 277 278 280 281 282 283 282 282 283 283 283 283 283 283 283 284 285 285 284 284 285 285 283 280 279 280 279 279 279 278 277
272 272 273 274 274 275 276 278 279 281 282 283 283 282 283 284 284 284 284 284 285 285 285 286 286 286 286 286 285 283 282 281 280 279 279 279 278 278
273 273 274 274 275 276 277 279 281 282 283 284 285 284 284 284 284 284 285 285 286 287 287 288 287 287 287 287 285 283 282 281 281 281 281 280 279 279
274 274 275 276 277 278 278 280 282 283 284 285 287 287 286 285 285 285 286 286 286 287 287 288 289 289 289 287 285 283 282 282 282 282 283 282 281 280
274 275 277 279 280 280 280 281 283 284 285 286 288 288 288 288 287 286 286 286 287 288 290 291 291 290 290 289 287 285 284 283 282 282 282 282 282 281